SCOUT B DEB, 37862

Orbit data source: Space-Track

SCOUT B DEB, 37862 is space debris in LEO originally from a launch on Tue, 10 Aug 1965 UTC launched from the Wallops Island (WLPIS). Debris objects in space refer to the collection of defunct objects orbiting the Earth. Examples of debris include non-operational satellites, rocket bodies, and fragments generated from explosions, collisions, or faulty payload assembly.

Loading next visibility...
Identifier
37862, 1965-063AE
Orbit
LEO
Country
Flag of USUS
Related business
Manufacturer
Unknown
Mission
Spacecraft
Bus & Motor
Unknown
Mass
Unknown
Launch date (UTC)
1965-08-10 (60 years ago)
Launch vehicle
Unknown
Launch site
Wallops Island (WLPIS)
Object type
Payload
Rocket body
Debris
Shape & HBR
Unknown
Radar Cross Section
Small (<0.1 m²)

Expand to show TLE details & history
Last TLE update: 1 day ago

TLE from 1 day ago
0 SCOUT B DEB
1 37862U 65063AE  25259.59821830  .00004010  00000-0  74973-2 0  9992
2 37862  69.1018 218.2965 0826127 194.1003 163.5636 12.50378696716135
Epoch: 2025-09-16T14:21Z
TLE epoch observation values (Epoch: 2025-09-16T14:21:26.061Z)
Latitude
-0.00004°
Longitude
7.15168°
Altitude
2,090.197 km
Speed
6.583 km/s
True Right ascension
14h 33m 11s
True Declination
0° 00' 00"
Sunlit
Object was in daylight at epoch
Visualization orbit readout
Latitude
Unknown
Longitude
Unknown
Altitude
Unknown
Speed
Unknown
Apparent Right ascension
Unknown
Apparent Declination
Unknown
Sunlit
N/A
Visualization observer readout
Local Sidereal Time
15:00:02
Azimuth
Unknown
Elevation
Unknown
Doppler factor
Unknown
Orbital elements
Apogee altitude
2,108.788 km
Perigee altitude
813.536 km
Semi-major axis
7,839.299 km
Eccentricity
0.08261
Inclination
69.1018°
RAAN
218.2965°
Arg. of periapsis
194.1003°
True anomaly
165.99935°
Mean anomaly
163.5636°
Eccentric anomaly
164.80429°
Mean motion
3.127 °/min
Orbital period
115.13 mins
BSTAR
0.0074973
Loading maneuver chart data...
Computing Atmospheric mass density...
Loading historical data...
Loading historical data...
Loading historical data...
Loading historical data...
Loading historical data...
Loading historical data...
Loading historical data...

Documentation

Showing up to 5 results
|